STARLINK-36705, 67712

Orbit data source: Space-Track

STARLINK-36705, 67712 is a payload satellite owned by SpaceX/Seattle (US) in SSO that was launched on Sat, 07 Feb 2026 UTC via an FALCON 9 launch vehicle from the Air Force Western Test Range (AFWTR). Payload-class satellites include a variety of spacecraft equipped with specific instruments for various scientific and technological missions. These include communications satellites like Starlink; space stations such as the ISS; scientific satellites like the Hubble; Earth observation satellites from companies like Planet Labs, Umbra, and HawkEye 360; GPS; miniature CubeSats for education and research; and military/defense satellites.

Loading next visibility...
Identifier
67712, 2026-025V
Orbit
SSO
Country
Flag of USUS
Related business
Manufacturer
SpaceX/Seattle
Mission
Operational Commercial Communications
Bus & Motor
STARLINK V2MO, Unknown motor
Mass
575 kg wet, ~530 kg dry
Launch date (UTC)
2026-02-07 (4 months ago)
Launch vehicle
FALCON 9
Launch site
Air Force Western Test Range (AFWTR)
Object type
Payload
Rocket body
Debris
Shape & HBR
Box + 2 Pan, 17.7 m
Radar Cross Section
36.964 m², Large (>1 m²)

Expand to show TLE details & history
Last TLE update: 15 hours ago

TLE from 15 hours ago
0 STARLINK-36705
1 67712U 26025V   26171.29351098  .00018827  00000-0  58394-3 0  9990
2 67712  97.2845 282.4886 0000440 110.8809 249.2480 15.33451255 21739
Epoch: 2026-06-20T07:02Z
TLE epoch observation values (Epoch: 2026-06-20T07:02:39.348Z)
Latitude
-0.00012°
Longitude
-91.68554°
Altitude
468.743 km
Speed
7.632 km/s
True Right ascension
18h 49m 57s
True Declination
0° 00' 00"
Sunlit
Object was in full shadow at epoch
Visualization orbit readout
Latitude
Unknown
Longitude
Unknown
Altitude
Unknown
Speed
Unknown
Apparent Right ascension
Unknown
Apparent Declination
Unknown
Sunlit
N/A
Visualization observer readout
Local Sidereal Time
08:42:12
Azimuth
Unknown
Elevation
Unknown
Doppler factor
Unknown
Orbital elements
Apogee altitude
462.768 km
Perigee altitude
462.166 km
Semi-major axis
6,840.604 km
Eccentricity
0.00004
Inclination
97.2845°
RAAN
282.4886°
Arg. of periapsis
110.8809°
True anomaly
249.24329°
Mean anomaly
249.248°
Eccentric anomaly
249.24564°
Mean motion
3.8362 °/min
Orbital period
93.84 mins
BSTAR
0.00058394
Loading maneuver chart data...
Computing Atmospheric mass density...
Loading historical data...
Loading historical data...
Loading historical data...
Loading historical data...
Loading historical data...
Loading historical data...
Loading historical data...

Documentation

Showing up to 5 results
|